This is the latest recevied weather packets stored in our database for station/object YO4ISC-13. If no packets are shown the sender has not sent any weather packets the latest 1 day(s).
| Time | Temp. | Humidity | Pressure | Rain* | Wind** | Luminosity | Snow |
|---|---|---|---|---|---|---|---|
| 1777989601 | 14.44° C | 66% | 1017 hPa | - | 3.58 m/s, 169° | - | - |
| 1777989002 | 15° C | 63% | 1018 hPa | - | 2.68 m/s, 162° | - | - |
| 1777988401 | 15° C | 64% | 1017 hPa | - | 1.79 m/s, 155° | - | - |
| 1777987802 | 15° C | 65% | 1018 hPa | - | 4.47 m/s, 154° | - | - |
| 1777987201 | 15° C | 64% | 1017 hPa | - | 2.68 m/s, 165° | - | - |
| 1777986602 | 15° C | 59% | 1018 hPa | - | 4.92 m/s, 167° | - | - |
| 1777986001 | 15.56° C | 60% | 1018 hPa | - | 1.79 m/s, 163° | - | - |
| 1777985402 | 15° C | 58% | 1018 hPa | - | 3.13 m/s, 160° | - | - |
| 1777984802 | 15° C | 64% | 1018 hPa | - | 3.13 m/s, 164° | - | - |
| 1777984201 | 15° C | 63% | 1018 hPa | - | 3.13 m/s, 158° | - | - |
| 1777983602 | 15° C | 63% | 1018 hPa | - | 2.68 m/s, 155° | - | - |
| 1777983001 | 15° C | 63% | 1018 hPa | - | 4.02 m/s, 159° | - | - |
| 1777982402 | 15° C | 68% | 1018 hPa | - | 3.13 m/s, 171° | - | - |
| 1777981802 | 15.56° C | 66% | 1018 hPa | - | 2.24 m/s, 165° | - | - |
| 1777981202 | 15.56° C | 64% | 1018 hPa | - | 3.58 m/s, 150° | - | - |
| 1777980602 | 15° C | 67% | 1018 hPa | - | 3.13 m/s, 168° | - | - |
| 1777980001 | 15° C | 68% | 1018 hPa | - | 4.02 m/s, 170° | - | - |
| 1777979402 | 15.56° C | 66% | 1018 hPa | - | 3.13 m/s, 169° | - | - |
| 1777978801 | 15.56° C | 66% | 1018 hPa | - | 2.68 m/s, 147° | - | - |
| 1777978202 | 15.56° C | 66% | 1018 hPa | - | 3.13 m/s, 146° | - | - |
| 1777977602 | 15.56° C | 64% | 1018 hPa | - | 3.13 m/s, 145° | - | - |
| 1777977002 | 15.56° C | 61% | 1018 hPa | - | 4.92 m/s, 162° | - | - |
| 1777976402 | 16.11° C | 57% | 1018 hPa | - | 2.24 m/s, 127° | - | - |
| 1777975801 | 16.11° C | 57% | 1018 hPa | - | 3.58 m/s, 158° | - | - |
| 1777975202 | 16.11° C | 55% | 1018 hPa | - | 4.92 m/s, 126° | - | - |
* Rain since midnight (hover to see other rain measurements)
** Current wind speed in m/s (hover to see current wind gust speed)